Hourly Data Report for October 20, 2014

All times are specified in Local Standard Time (LST). Add 1 hour to adjust for Daylight Saving Time where and when it is observed.

KITCHENER/WATERLOO
ONTARIO

43°27'39.000" N
80°22'43.000" W
321.60 m
6144239
71368
YKF

Download Data

Hourly Data (October 2014)
Hourly Data Report for October 20, 2014
Temp Definition
°C
Dew Point Temp Definition
°C
Rel Hum Definition
%
Wind Dir Definition
10's deg

Wind Spd Definition
km/h
Visibility Definition
km
Stn Press Definition
kPa
Hmdx Definition


Wind Chill Definition


Weather Definition


TIME
00:00 Legend Double Dagger 4.7 1.9 82 22 5 16.1 97.69     LegendNANA
01:00 Legend Double Dagger 4.7 1.6 80 21 8 16.1 97.66     LegendNANA
02:00 Legend Double Dagger 5.0 1.9 80 19 9 16.1 97.59     LegendNANA
03:00 Legend Double Dagger 5.2 1.9 79 20 9 16.1 97.51     LegendNANA
04:00 Legend Double Dagger 5.5 2.2 79 19 9 16.1 97.46     LegendNANA
05:00 Legend Double Dagger 5.8 2.5 79 18 8 16.1 97.40     LegendNANA
06:00 Legend Double Dagger 5.6 3.8 88 24 4 12.9 97.38     Rain
07:00 Legend Double Dagger 5.4 4.7 95 14 4 16.1 97.35     Rain
08:00 Legend Double Dagger 6.6 5.4 92 16 5 16.1 97.33     LegendNANA
09:00 Legend Double Dagger 8.0 6.3 89 20 13 16.1 97.29     Rain
10:00 Legend Double Dagger 10.1 7.2 82 23 22 16.1 97.26     LegendNANA
11:00 Legend Double Dagger 10.8 7.7 81 22 21 16.1 97.21     LegendNANA
12:00 Legend Double Dagger 10.9 8.1 83 22 13 16.1 97.14     LegendNANA
13:00 Legend Double Dagger 12.0 8.4 78 23 24 16.1 97.07     LegendNANA
14:00 Legend Double Dagger 12.1 8.4 78 21 21 16.1 97.03     LegendNANA
15:00 Legend Double Dagger 11.1 9.2 88 24 15 8.1 97.05     Moderate Rain,Fog
16:00 Legend Double Dagger 10.7 9.0 89 25 9 14.5 97.05     LegendNANA
17:00 Legend Double Dagger 10.4 9.0 91 24 5 11.3 97.06     Rain
18:00 Legend Double Dagger 10.2 8.8 91 25 8 11.3 97.09     LegendNANA
19:00 Legend Double Dagger 10.0 8.9 93 LegendMM 4 8.1 97.11     Fog
20:00 Legend Double Dagger 9.9 8.5 91 29 13 6.4 97.13     Fog
21:00 Legend Double Dagger 9.8 8.6 92 29 9 4.8 97.13     Fog
22:00 Legend Double Dagger 9.7 8.5 92 30 9 4.8 97.12     Fog
23:00 Legend Double Dagger 9.6 8.5 93 30 13 4.8 97.12     Fog

Notes on Data Quality.

Legend

  • E = Estimated
  • M = Missing
  • NA = Not Available
  • ‡ = Partner data that is not subject to review by the National Climate Archives
Date modified: